• In Moldova, Republic
  • List of Countries
  • For 7 days
  • Water Temperature
  • Satellite Maps
  • Weather Map
  • Weather Widgets
  • user-avatar
    Login

    Hourly Weather Sidi Bu-l-Abbas

    Today, 18 January, Wednesday

    Time Temperature Precipitation Wind Pressure Humidity
    00:00 +5°C° 0 mm 3 mps 718 mmHg 80%
    01:00 +5°C° 0.1 mm 3 mps 718 mmHg 78%
    02:00 +4°C° 0.1 mm 3 mps 718 mmHg 75%
    03:00 +5°C° 0.1 mm 2 mps 718 mmHg 73%
    04:00 +4°C° 0 mm 3 mps 718 mmHg 71%
    05:00 +4°C° 0 mm 3 mps 718 mmHg 70%
    06:00 +4°C° 0 mm 2 mps 718 mmHg 70%
    07:00 +4°C° 0.1 mm 3 mps 718 mmHg 67%
    08:00 +4°C° 0.1 mm 3 mps 718 mmHg 64%
    09:00 +4°C° 0.1 mm 4 mps 718 mmHg 61%
    10:00 +5°C° 0.1 mm 4 mps 718 mmHg 59%
    11:00 +6°C° 0.1 mm 4 mps 718 mmHg 56%
    12:00 +6°C° 0.1 mm 4 mps 718 mmHg 54%
    13:00 +7°C° 0.2 mm 4 mps 717 mmHg 56%
    14:00 +7°C° 0.2 mm 4 mps 717 mmHg 58%
    15:00 +7°C° 0.2 mm 4 mps 716 mmHg 60%
    16:00 +6°C° 0.2 mm 4 mps 716 mmHg 65%
    17:00 +5°C° 0.2 mm 4 mps 716 mmHg 70%
    18:00 +4°C° 0.2 mm 4 mps 716 mmHg 75%
    19:00 +4°C° 0.1 mm 4 mps 716 mmHg 75%
    20:00 +4°C° 0.1 mm 3 mps 716 mmHg 75%
    21:00 +4°C° 0.1 mm 3 mps 716 mmHg 75%
    22:00 +4°C° 0.2 mm 3 mps 716 mmHg 77%
    23:00 +4°C° 0.2 mm 3 mps 716 mmHg 79%

    Tomorrow, 19 January, Thursday

    Time Temperature Precipitation Wind Pressure Humidity
    00:00 +5°C° 0.2 mm 2 mps 716 mmHg 81%
    01:00 +5°C° 0 mm 2 mps 716 mmHg 81%
    02:00 +4°C° 0 mm 3 mps 715 mmHg 81%
    03:00 +4°C° 0 mm 3 mps 715 mmHg 80%
    04:00 +4°C° 0.1 mm 3 mps 715 mmHg 78%
    05:00 +4°C° 0.1 mm 3 mps 715 mmHg 77%
    06:00 +5°C° 0.1 mm 3 mps 715 mmHg 75%
    07:00 +5°C° 0.2 mm 3 mps 715 mmHg 73%
    08:00 +7°C° 0.2 mm 3 mps 715 mmHg 71%
    09:00 +8°C° 0.2 mm 3 mps 715 mmHg 69%
    10:00 +9°C° 0.1 mm 3 mps 716 mmHg 63%
    11:00 +10°C° 0.1 mm 3 mps 716 mmHg 58%
    12:00 +11°C° 0.1 mm 3 mps 716 mmHg 52%
    13:00 +10°C° 0.3 mm 3 mps 715 mmHg 55%
    14:00 +10°C° 0.3 mm 3 mps 715 mmHg 58%
    15:00 +9°C° 0.3 mm 2 mps 715 mmHg 61%
    16:00 +8°C° 0.3 mm 2 mps 715 mmHg 70%
    17:00 +7°C° 0.3 mm 2 mps 715 mmHg 78%
    18:00 +6°C° 0.3 mm 1 mps 716 mmHg 87%
    19:00 +6°C° 0.1 mm 1 mps 716 mmHg 87%
    20:00 +6°C° 0.1 mm 1 mps 716 mmHg 87%
    21:00 +6°C° 0.1 mm 1 mps 716 mmHg 86%
    22:00 +6°C° 0 mm 1 mps 716 mmHg 84%
    23:00 +6°C° 0 mm 1 mps 716 mmHg 82%

    Day after tomorrow, 20 January, Friday

    Time Temperature Precipitation Wind Pressure Humidity
    00:00 +6°C° 0 mm 1 mps 716 mmHg 80%
    01:00 +6°C° 0 mm 1 mps 716 mmHg 79%
    02:00 +6°C° 0 mm 1 mps 716 mmHg 78%
    03:00 +5°C° 0 mm 1 mps 716 mmHg 77%
    04:00 +5°C° 0.3 mm 1 mps 716 mmHg 76%
    05:00 +6°C° 0.3 mm 1 mps 716 mmHg 75%
    06:00 +6°C° 0.3 mm 1 mps 716 mmHg 75%
    07:00 +6°C° 0.5 mm 1 mps 716 mmHg 75%
    08:00 +6°C° 0.5 mm 1 mps 717 mmHg 75%
    09:00 +6°C° 0.5 mm 1 mps 717 mmHg 75%
    10:00 +7°C° 0.2 mm 1 mps 717 mmHg 72%
    11:00 +8°C° 0.2 mm 1 mps 717 mmHg 69%
    12:00 +8°C° 0.2 mm 1 mps 717 mmHg 65%
    13:00 +8°C° 0.4 mm 1 mps 717 mmHg 68%
    14:00 +7°C° 0.4 mm 2 mps 716 mmHg 70%
    15:00 +7°C° 0.4 mm 2 mps 716 mmHg 72%
    16:00 +6°C° 0.5 mm 2 mps 716 mmHg 77%
    17:00 +6°C° 0.5 mm 2 mps 717 mmHg 83%
    18:00 +5°C° 0.5 mm 2 mps 717 mmHg 88%
    19:00 +5°C° 0.3 mm 2 mps 717 mmHg 89%
    20:00 +4°C° 0.3 mm 3 mps 718 mmHg 90%
    21:00 +3°C° 0.3 mm 3 mps 718 mmHg 91%
    22:00 +3°C° 0.2 mm 3 mps 718 mmHg 91%
    23:00 +3°C° 0.2 mm 3 mps 718 mmHg 92%

    21 January, Saturday

    Time Temperature Precipitation Wind Pressure Humidity
    00:00 +3°C° 0.2 mm 4 mps 718 mmHg 92%
    01:00 +3°C° 0.1 mm 4 mps 718 mmHg 91%
    02:00 +3°C° 0.1 mm 4 mps 718 mmHg 91%
    03:00 +3°C° 0.1 mm 4 mps 718 mmHg 91%
    04:00 +3°C° 0.1 mm 4 mps 718 mmHg 90%
    05:00 +3°C° 0.1 mm 4 mps 718 mmHg 90%
    06:00 +3°C° 0.1 mm 4 mps 718 mmHg 90%
    07:00 +4°C° 0.1 mm 4 mps 718 mmHg 88%
    08:00 +5°C° 0.1 mm 5 mps 718 mmHg 86%
    09:00 +5°C° 0.1 mm 5 mps 719 mmHg 84%
    10:00 +6°C° 0.2 mm 5 mps 719 mmHg 82%
    11:00 +7°C° 0.2 mm 6 mps 719 mmHg 80%
    12:00 +7°C° 0.2 mm 6 mps 719 mmHg 78%
    13:00 +7°C° 0.4 mm 6 mps 719 mmHg 79%
    14:00 +7°C° 0.4 mm 6 mps 718 mmHg 81%
    15:00 +7°C° 0.4 mm 6 mps 718 mmHg 82%
    16:00 +5°C° 0.7 mm 6 mps 718 mmHg 85%
    17:00 +5°C° 0.7 mm 6 mps 718 mmHg 88%
    18:00 +5°C° 0.7 mm 5 mps 719 mmHg 91%
    19:00 +5°C° 0.7 mm 5 mps 719 mmHg 91%
    20:00 +6°C° 0.7 mm 5 mps 719 mmHg 92%
    21:00 +6°C° 0.7 mm 5 mps 720 mmHg 92%
    22:00 +4°C° 2.6 mm 6 mps 719 mmHg 93%
    23:00 +4°C° 2.6 mm 6 mps 719 mmHg 94%

    22 January, Sunday

    Time Temperature Precipitation Wind Pressure Humidity
    00:00 +4°C° 2.6 mm 6 mps 719 mmHg 95%
    01:00 +4°C° 3.8 mm 6 mps 719 mmHg 94%
    02:00 +4°C° 3.8 mm 6 mps 719 mmHg 93%
    03:00 +5°C° 3.8 mm 6 mps 719 mmHg 93%
    04:00 +6°C° 1.8 mm 5 mps 719 mmHg 92%
    05:00 +6°C° 1.8 mm 5 mps 719 mmHg 91%
    06:00 +6°C° 1.8 mm 5 mps 719 mmHg 90%
    07:00 +6°C° 0.6 mm 5 mps 719 mmHg 89%
    08:00 +6°C° 0.6 mm 5 mps 720 mmHg 88%
    09:00 +6°C° 0.6 mm 4 mps 720 mmHg 86%
    10:00 +7°C° 0.1 mm 5 mps 720 mmHg 83%
    11:00 +7°C° 0.1 mm 5 mps 721 mmHg 79%
    12:00 +8°C° 0.1 mm 5 mps 721 mmHg 76%
    13:00 +8°C° 0.1 mm 5 mps 720 mmHg 75%
    14:00 +8°C° 0.1 mm 6 mps 720 mmHg 74%
    15:00 +8°C° 0.1 mm 6 mps 720 mmHg 73%
    16:00 +7°C° 0.2 mm 5 mps 720 mmHg 79%
    17:00 +6°C° 0.2 mm 4 mps 720 mmHg 85%
    18:00 +5°C° 0.2 mm 3 mps 720 mmHg 91%
    19:00 +5°C° 0.2 mm 3 mps 721 mmHg 91%
    20:00 +5°C° 0.2 mm 3 mps 721 mmHg 91%
    21:00 +4°C° 0.2 mm 3 mps 721 mmHg 91%
    22:00 +4°C° 0 mm 3 mps 721 mmHg 91%
    23:00 +4°C° 0 mm 3 mps 721 mmHg 91%

    23 January, Monday

    Time Temperature Precipitation Wind Pressure Humidity
    00:00 +4°C° 0 mm 3 mps 721 mmHg 90%
    01:00 +4°C° 0.1 mm 3 mps 721 mmHg 90%
    02:00 +3°C° 0.1 mm 3 mps 721 mmHg 90%
    03:00 +3°C° 0.1 mm 3 mps 721 mmHg 90%
    04:00 +3°C° 0 mm 3 mps 721 mmHg 90%
    05:00 +3°C° 0 mm 3 mps 721 mmHg 89%
    06:00 +3°C° 0 mm 3 mps 721 mmHg 88%
    07:00 +4°C° 0 mm 3 mps 722 mmHg 84%
    08:00 +5°C° 0 mm 3 mps 722 mmHg 79%
    09:00 +7°C° 0 mm 3 mps 723 mmHg 75%
    10:00 +9°C° 0 mm 3 mps 723 mmHg 69%
    11:00 +10°C° 0 mm 4 mps 723 mmHg 64%
    12:00 +11°C° 0 mm 4 mps 723 mmHg 59%
    13:00 +11°C° 0.1 mm 4 mps 722 mmHg 58%
    14:00 +11°C° 0.1 mm 4 mps 722 mmHg 58%
    15:00 +11°C° 0.1 mm 4 mps 722 mmHg 57%
    16:00 +8°C° 0.1 mm 4 mps 722 mmHg 66%
    17:00 +8°C° 0.1 mm 3 mps 722 mmHg 75%
    18:00 +6°C° 0.1 mm 2 mps 722 mmHg 84%
    19:00 +6°C° 0.4 mm 2 mps 722 mmHg 85%
    20:00 +5°C° 0.4 mm 2 mps 723 mmHg 85%
    21:00 +5°C° 0.4 mm 2 mps 723 mmHg 85%
    22:00 +5°C° 0.2 mm 2 mps 723 mmHg 85%
    23:00 +5°C° 0.2 mm 2 mps 723 mmHg 84%
    Show more